Weather in Beloozersk

Russia / Republic of Buryatia     50°38′58″N   105°42′28″E
temp.,
°C
wind,
m/s
gust,
m/s
humid.,
%
clouds,
%
prec.,
mm/h
press.,
hPa
HPBL,
m
15 may, sat
sat1523:00+7ese22390 0.0 101711
02:00+4s11430 0.0 101710
05:00+3sw22490 0.0 101712
08:00+7sw33401 0.0 1016262
11:00+13sw232712 0.0 1014728
14:00+16nne44255 0.0 10132484
17:00+14nne5433100 0.0 10141613
20:00+12ne22415 0.0 101520
16 may, sun
sun1623:00+8ssw114750 0.0 101710
02:00+7sw11525 0.0 101710
05:00+6sw22595 0.0 101610
08:00+10sw33515 0.0 1015287
11:00+16wsw673348 0.0 10111007
14:00+20n752593 0.0 10102430
17:00+19nne562811 0.0 10091702
20:00+15e474539 0.0 1010177
17 may, mon
mon1723:00+10ene226667 0.0 101123
02:00+9e117583 0.0 100810
05:00+7wsw228055 0.0 100514
08:00+12wsw385544 0.0 1003398
11:00+20nnw373195 0.0 10002527
14:00+15n674599 0.0 1003905
17:00+12nne4552100 0.5 10061010
20:00+10nne445671 0.5 1009526
18 may, tue
tue1823:00+6nne117224 0.0 101319
02:00+5ne1176100 0.0 101410
05:00+4ssw1179100 0.0 101510
08:00+6s126699 0.0 1014530
11:00+8sw3363100 0.0 10121059
14:00+11wsw345688 0.1 10091158
17:00+14ssw23455 0.0 10061268
20:00+13se115391 0.0 100414
19 may, wed
wed1923:00+10se22575 0.0 100212
02:00+8ssw1167100 0.0 100011
05:00+7wsw22755 0.0 99813
08:00+11nnw226162 0.0 998344
11:00+16ne4447100 0.0 9971363
14:00+14nne4354100 0.0 998941
17:00+16ene434792 0.0 9971209
20:00+11nne486997 1.4 1001602